Regional Weather Roundup
Issued by NWS

Home | Current Version | Previous Version | Graphics & Text | Print | Product List | Glossary Off
Versions: 1 2 3 4 5 6 7 8 9 10 11 12 13 14 15 16 17 18 19 20 21 22 23 24 25 26 27 28 29 30 31 32 33 34 35 36 37 38 39 40 41 42 43 44 45 46 47 48 49 50

000
ASUS43 KTOP 221859
RWRKS

WEATHER ROUNDUP FOR KANSAS
NATIONAL WEATHER SERVICE GOODLAND KS
200 PM CDT FRI MAY 22 2015

NOTE:  "FAIR" INDICATES FEW OR NO CLOUDS BELOW 12,000 FEET WITH NO
SIGNIFICANT WEATHER AND/OR OBSTRUCTIONS TO VISIBILITY.

KSZ001>006-013>018-027>032-041>047-222000-
NORTHWEST KANSAS

CITY           SKY/WX    TMP DP  RH WIND       PRES   REMARKS
GOODLAND       LGT RAIN  50  49  96 SE16G26   30.05F FOG
HAYS           CLOUDY    55  45  67 SE15      30.15F
HILL CITY      CLOUDY    54  48  80 SE14G21   30.14F
RUSSELL        CLOUDY    55  50  83 S12       30.15F
$$

KSZ061>065-074>080-084>089-222000-
SOUTHWEST KANSAS

CITY           SKY/WX    TMP DP  RH WIND       PRES   REMARKS
DODGE CITY     CLOUDY    56  49  77 S17G25    30.12F
ELKHART          N/A     60  49  67 S18         N/A
GARDEN CITY    CLOUDY    52  50  93 S17       30.08F
GREAT BEND     CLOUDY    55  48  76 S16       30.15F
LIBERAL        CLOUDY    55  52  88 S14       30.11F
$$

KSZ066>073-081>083-090>101-222000-
SOUTHEAST KANSAS

CITY           SKY/WX    TMP DP  RH WIND       PRES   REMARKS
CHANUTE        CLOUDY    63  50  62 SE12      30.22S
COFFEYVILLE    CLOUDY    61  52  72 S12       30.22F
HUTCHINSON     LGT RAIN  57  53  86 SE14      30.19F FOG
NEWTON         CLOUDY    57  52  82 S14       30.22S
PARSONS        CLOUDY    64  53  67 SE8       30.23F
WICHITA INTL   CLOUDY    57  54  89 S13       30.19F FOG
WICHITA JABRA  LGT RAIN  56  53  90 S12       30.19F
WICHITA MCCONL CLOUDY    55  54  94 SE10      30.20F
WINFIELD       CLOUDY    59  55  87 SE12      30.20F
$$

KSZ007>012-019>026-033>040-048>060-102>105-222000-
NORTHEAST KANSAS

CITY           SKY/WX    TMP DP  RH WIND       PRES   REMARKS
CONCORDIA      CLOUDY    58  48  69 SE13      30.22F
EMPORIA        CLOUDY    61  49  64 SE13      30.22F
LAWRENCE       CLOUDY    64  47  53 SE13      30.24F
MANHATTAN      CLOUDY    63  48  58 S12       30.22F
OLATHE IND     CLOUDY    62  46  55 SE12G18   30.24F
OLATHE EXE     CLOUDY    63  49  60 SE8       30.24F
SALINA         CLOUDY    60  51  72 S13       30.20S
TOPEKA BILLARD CLOUDY    62  46  55 SE9       30.23F
TOPEKA FORBES  CLOUDY    63  48  58 SE10      30.23F
$$


USA.gov is the U.S. government's official web portal to all federal, state and local government web resources and services.